Simultaneous Nadir Overpasses (SNOs) Predictions

Prediction of SNOs between GOES-15 and NOAA-20 Satellite Orbit:

Table of predicted SNOs for the next 14.0 days since TLE Epoch: 9/25/2020
Index Date Time (GOES-15) GOES-15 Lat,Lon NOAA-20 Lat,Lon Distance(km) Time Diff (sec)
1 09/26/2020 22:10:30 0.13,-128.36 -0.45,-131.08 308.41 80
2 09/27/2020 21:49:05 0.13,-128.37 0.56,-126.54 209.18 80
3 09/29/2020 10:10:51 -0.13,-128.43 0.62,-131.81 384.88 80
4 09/30/2020 09:54:46 -0.13,-128.44 -0.39,-127.27 132.88 80
5 10/01/2020 22:16:41 0.13,-128.41 -0.80,-132.57 474.01 80
6 10/02/2020 21:55:15 0.13,-128.42 0.22,-128.04 43.33 80
7 10/05/2020 09:58:16 -0.13,-128.47 -0.04,-128.77 34.55 80
8 10/06/2020 09:42:12 -0.13,-128.47 -1.11,-124.25 482.55 80
9 10/07/2020 22:04:06 0.13,-128.44 -0.12,-129.54 125.51 80
10 10/08/2020 21:42:41 0.14,-128.43 0.90,-125.00 390.72 80
